GSAT0219 (GALILEO 23) (43566 NORAD) Tracking and Keplerian Element Data

This shows tracking and keplerian element data for the satellite.

Feedback or suggestion? Click here.




ElementValue
Catalog43566
NameGSAT0219 (GALILEO 23)
Epoch Orbit1976
Epoch Day268.18576575
Epoch Year2021
RAAN28.3812
Inclination57.0696
Eccentricity0.0002287
Argument of Perigee249.5896
Mean Anonmoly110.3855
Mean Motion1.70476245
Decay Rate-8.6E-07
L11 43566U 18060C 21268.18576575 -.00000086 00000-0 00000-0 0 9997
L22 43566 57.0696 28.3812 0002287 249.5896 110.3855 1.70476245 19767

Live tracking and technical data element details for GSAT0219 (GALILEO 23) (NORAD 43566). GSAT0219 (GALILEO 23) can be tracked NOW for your location showing map with azimuth and elevation plus other details from your city location.

Track the satellite on the map from your city or location and see movement details for azimuth, elevation, latitude, longitude, range, height, and movement on the map or in text.







IsCatalogInMostPopularTable: catalog: 43566, numindb: 552
Update: records affected: 1



GetName: 43566 GSAT0219 (GALILEO 23)

Hit Count: updated at: Mon, 27 Sep 2021 00:19:30 GMT